Regional Weather Roundup
Issued by NWS

Home | Current Version | Previous Version | Text Only | Print | Product List | Glossary Off
Versions: 1 2 3 4 5 6 7 8 9 10 11 12 13 14 15 16 17 18 19 20 21 22 23 24 25 26 27 28 29 30 31 32 33 34 35 36 37 38 39 40 41 42 43 44 45 46 47 48 49 50

000
ASUS43 KOAX 220610
RWRNE

WEATHER ROUNDUP FOR NEBRASKA
NATIONAL WEATHER SERVICE OMAHA NE
100 AM CDT TUE JUL 22 2014

NOTES: SATELLITE DATA IS BEING USED TO AUGMENT CLOUD COVER ABOVE
       12000 FEET.
       "FAIR" INDICATES FEW OR NO CLOUDS BELOW 12,000 FEET WITH NO
       SIGNIFICANT WEATHER AND/OR OBSTRUCTIONS TO VISIBILITY.

  * THESE STATIONS DO NOT REPORT WEATHER SUCH AS RAIN...SNOW OR FOG.

NEZ001>004-019>022-054>056-220700-
NEBRASKA PANHANDLE

CITY           SKY/WX    TMP DP  RH WIND       PRES   REMARKS
SCOTTSBLUFF    PTCLDY    68  59  73 E5        30.06R
6HR MIN TEMP:  68; 6HR MAX TEMP:  88;

ALLIANCE       PTCLDY    69  51  52 N16G23    30.06R
6HR MIN TEMP:  66; 6HR MAX TEMP:  92;

CHADRON        PTCLDY    78  54  43 NE10      30.03R
6HR MIN TEMP:  78; 6HR MAX TEMP: 102;

KIMBALL        PTCLDY    69  48  46 S7        30.14R
SIDNEY         PTCLDY    76  52  43 SE8       30.10S
6HR MIN TEMP:  76; 6HR MAX TEMP:  97;

$$

NEZ057>060-069>072-079>082-220700-
SOUTHWEST NEBRASKA

CITY           SKY/WX    TMP DP  RH WIND       PRES   REMARKS
NORTH PLATTE   CLOUDY    82  56  40 S9        29.98F
6HR MIN TEMP:  76; 6HR MAX TEMP:  96;

IMPERIAL       CLEAR     77  59  53 SW7       30.06R
6HR MIN TEMP:  74; 6HR MAX TEMP:  99; 6HR PCP: TRACE;

LEXINGTON      PTCLDY    80  66  62 SW9       29.99R
MCCOOK         CLEAR     75  63  66 SW6       30.01F
6HR MIN TEMP:  74; 6HR MAX TEMP:  93;

OGALLALA       MOCLDY    73  58  60 S3        30.05S
$$

NEZ005>010-023>029-035>040-094-220700-
NORTH CENTRAL NEBRASKA

CITY           SKY/WX    TMP DP  RH WIND       PRES   REMARKS
VALENTINE      MOCLDY    82  59  45 NE6       29.97R
6HR MIN TEMP:  77; 6HR MAX TEMP: 102; 6HR PCP: TRACE;

AINSWORTH      MOCLDY    82  55  40 W13       29.97R
BROKEN BOW     MOCLDY    76  61  59 S9        29.97R
6HR MIN TEMP:  70; 6HR MAX TEMP:  94;

O`NEILL        PTCLDY    76  67  72 SW8       29.89F
THEDFORD       CLOUDY    78  52  40 CALM      29.98S
$$

NEZ041-046>049-061>064-073>077-083>087-220700-
SOUTH CENTRAL NEBRASKA

CITY           SKY/WX    TMP DP  RH WIND       PRES   REMARKS
GRAND ISLAND   CLOUDY    86  72  62 S16       29.93S HX  92
6HR MIN TEMP:  86; 6HR MAX TEMP:  97;

AURORA         CLOUDY    84  73  67 SW12G20   29.94S HX  90
HASTINGS       CLOUDY    84  68  58 S10       29.96S
6HR MIN TEMP:  84; 6HR MAX TEMP:  99;

HEBRON         PTCLDY    83  70  62 SW7       29.95R
HOLDREGE       PTCLDY    79  68  70 SW7       29.99S
KEARNEY *      MOCLDY    82  72  69 SW13      29.97S
YORK           CLOUDY    84  73  70 SW16      29.93S HX  91
$$

NEZ011>018-030>034-042>045-220700-
NORTHEAST NEBRASKA

CITY           SKY/WX    TMP DP  RH WIND       PRES   REMARKS
NORFOLK        MOCLDY    85  72  65 SW16G25   29.87R HX  91
6HR MIN TEMP:  83; 6HR MAX TEMP:  92;

ALBION         MOCLDY    82  71  70 SW6       29.91R
BLAIR          CLOUDY    85  71  63 S9        29.89R HX  91
COLUMBUS *     CLOUDY    88  72  58 SW13      29.91R HX  94
FREMONT        CLOUDY    90  70  51 SW13      29.88R HX  95
TEKAMAH        CLOUDY    84  75  74 S7        29.85R HX  92
6HR MIN TEMP:  82; 6HR MAX TEMP:  94;

WAYNE          PTCLDY    81  77  88 SW8       29.86S
$$

NEZ050>053-065>068-078-088>093-220700-
SOUTHEAST NEBRASKA

CITY           SKY/WX    TMP DP  RH WIND       PRES   REMARKS
LINCOLN        CLOUDY    87  70  56 SW14      29.92R HX  92
6HR MIN TEMP:  87; 6HR MAX TEMP:  96;

OMAHA EPPLEY   CLOUDY    85  74  69 SE10      29.88R HX  92
6HR MIN TEMP:  84; 6HR MAX TEMP:  95;

BEATRICE       MOCLDY    80  69  70 S12       29.93R
FALLS CITY     PTCLDY    82  73  74 SW16      29.92S
6HR MIN TEMP:  82; 6HR MAX TEMP:  92;

NEBRASKA CITY  MOCLDY    82  73  72 SW14G20   29.91S
PLATTSMOUTH    MOCLDY    85  71  62 S6        29.91R HX  90
$$

NEZ044-045-051>053-067-220700-
OMAHA AREA

CITY           SKY/WX    TMP DP  RH WIND       PRES   REMARKS
OMAHA EPPLEY   CLOUDY    85  74  69 SE10      29.88R HX  92
6HR MIN TEMP:  84; 6HR MAX TEMP:  95;

BLAIR          CLOUDY    85  71  63 S9        29.89R HX  91
FREMONT        CLOUDY    90  70  51 SW13      29.88R HX  95
MILLARD        CLOUDY    87  73  61 S3        29.88R HX  94
OFFUTT AFB     CLOUDY    80  80  99 E3        29.89R
PLATTSMOUTH    MOCLDY    85  71  62 S6        29.91R HX  90
WAHOO          FAIR      90  68  48 SW17G24   29.88R HX  93
$$


USA.gov is the U.S. government's official web portal to all federal, state and local government web resources and services.